Weather in Novoye Solkushino

Russia / Chechen Republic     43°35′11″N   45°40′51″E
temp.,
°C
wind,
m/s
gust,
m/s
humid.,
%
clouds,
%
prec.,
mm/h
press.,
hPa
HPBL,
m
13 may, thu
thu1300:00+11ese22793 0.0 101430
03:00+10ese22841 0.0 101414
06:00+12e24780 0.0 1014126
09:00+18ene33560 0.0 1014534
12:00+24ene44440 0.0 1014957
15:00+26ene44410 0.0 10131102
18:00+22e46570 0.0 1013224
21:00+15ese337685 0.0 101544
14 may, fri
fri1400:00+14ese228233 0.0 101422
03:00+13e22846 0.0 101314
06:00+15se117644 0.0 101451
09:00+22ne22570 0.0 1013476
12:00+28ene33440 0.0 1012812
15:00+31e55340 0.0 10101116
18:00+24ene47511 0.0 1010269
21:00+17e11661 0.0 101116
15 may, sat
sat1500:00+18ssw11680 0.0 101112
03:00+17se01740 0.0 101111
06:00+19w11690 0.0 101244
09:00+25nw22550 0.1 1013503
12:00+29n21430 0.0 10121100
15:00+31ne33350 0.0 10111654
18:00+24e474027 0.0 1011187
21:00+17ene2252100 0.0 101226
16 may, sun
sun1600:00+18sw115250 0.0 101112
03:00+17e225878 0.0 101015
06:00+18nne11595 0.0 101047
09:00+24n21470 0.0 1009451
12:00+30e35345 0.0 10071071
15:00+31e88251 0.0 10051165
18:00+24e713420 0.0 1005399
21:00+18e23490 0.0 100648
17 may, mon
mon1700:00+18s115313 0.0 100511
03:00+16ene015729 0.0 100511
06:00+18nnw00565 0.0 100441
09:00+24nne2140100 0.0 1004479
12:00+29e443195 0.0 1004911
15:00+29e76301 0.0 1003820
18:00+23ene355024 0.0 1004214
21:00+17w116499 0.0 100723